sat.trackr.live / text

‹ back to catalog

STARLINK-33813

NORAD 63585 · 2025-076S

PAYLOAD ACTIVE UNKNOWN

§ Identity

Operator
Country
US
Launch date
2025-04-14
Launch site
AFETR
Launch vehicle
Mass (kg)
RCS (m²)

Purposes: comms

External: N2YO · Heavens-Above · Gunter

§ Orbital elements

Epoch: 2026-09-20T18:59:50.800416Z

Period
94.27 min
Inclination
42.9975°
Eccentricity
0.0000311
Mean motion
15.27588176 rev/d
Perigee alt
482.8 km
Apogee alt
483.2 km
Semi-major
6,861.2 km
B*
3.5351e-4
RAAN
299.4353°
Arg perigee
339.7798°
Mean anomaly
20.3042°
Rev number
8,167

§ Raw data

STARLINK-338131 63585U 25076S   26263.79156019  .00009481  00000+0  35351-3 0  99952 63585  42.9975 299.4353 0000311 339.7798  20.3042 15.27588176 81674

JSON: /api/v1/satellites/63585 · /tle

For live sub-satellite position, see the globe view (requires WebGL).

§ Visibility from observer

Set your observer location to see the next 7 days of passes ≥ 10°. The values pass through the URL so the page stays shareable.

No JS? Fill the form by hand. The geolocation button needs JavaScript.